This is the latest recevied weather packets stored in our database for station/object F8KHU-13. If no packets are shown the sender has not sent any weather packets the latest 10 day(s).
| Time | Temp. | Humidity | Pressure | Rain* | Wind** | Luminosity | Snow |
|---|---|---|---|---|---|---|---|
| 1788182762 | 17.78° C | 49% | 1014 hPa | 0 mm | - | 0 W/m² | - |
| 1788182742 | 17.78° C | 49% | 1014 hPa | 0 mm | - | 0 W/m² | - |
| 1788181862 | 17.78° C | 47% | 1013.7 hPa | 0 mm | - | 0 W/m² | - |
| 1788181842 | 18.33° C | 48% | 1013.8 hPa | 0 mm | - | 0 W/m² | - |
| 1788181822 | 17.78° C | 50% | 1013.7 hPa | 0 mm | - | 0 W/m² | - |
| 1788180962 | 18.89° C | 31% | 1013.6 hPa | 0 mm | - | 0 W/m² | - |
| 1788180942 | 18.89° C | 31% | 1013.7 hPa | 0 mm | - | 0 W/m² | - |
| 1788180062 | 24.44° C | 25% | 1013.3 hPa | 0 mm | - | 0 W/m² | - |
| 1788180043 | 24.44° C | 25% | 1013.3 hPa | 0 mm | - | 0 W/m² | - |
| 1788180023 | 24.44° C | 25% | 1013.5 hPa | 0 mm | - | 0 W/m² | - |
| 1788179163 | 18.89° C | 30% | 1013.7 hPa | 0 mm | - | 0 W/m² | - |
| 1788179143 | 18.89° C | 29% | 1013.5 hPa | 0 mm | - | 0 W/m² | - |
| 1788178263 | 16.67° C | 57% | 1013.4 hPa | 0 mm | - | 0 W/m² | - |
| 1788178243 | 16.67° C | 57% | 1013.3 hPa | 0 mm | - | 0 W/m² | - |
| 1788178223 | 16.67° C | 58% | 1013.4 hPa | 0 mm | - | 0 W/m² | - |
| 1788177343 | 15.56° C | 61% | 1013.3 hPa | 0 mm | - | 0 W/m² | - |
| 1788176423 | 15.56° C | 53% | 1013.3 hPa | 0 mm | - | 0 W/m² | - |
| 1788175563 | 17.78° C | 29% | 1012.9 hPa | 0 mm | - | 0 W/m² | - |
| 1788175543 | 18.33° C | 29% | 1013.1 hPa | 0 mm | - | 0 W/m² | - |
| 1788174663 | 20° C | 28% | 1012.1 hPa | 0 mm | - | 0 W/m² | - |
| 1788174643 | 20° C | 28% | 1012.3 hPa | 0 mm | - | 0 W/m² | - |
| 1788174624 | 20° C | 28% | 1012.2 hPa | 0 mm | - | 0 W/m² | - |
| 1788173763 | 20° C | 28% | 1012.3 hPa | 0 mm | - | 0 W/m² | - |
| 1788173743 | 20° C | 28% | 1012.4 hPa | 0 mm | - | 0 W/m² | - |
| 1788172864 | 19.44° C | 28% | 1012.4 hPa | 0 mm | - | 0 W/m² | - |
* Rain latest hour (hover to see other rain measurements)
** Current wind speed in m/s (hover to see current wind gust speed)